Location: Unspecified
(0.0000°N, 0.0000°E)
Time: 18:51:37
(UTC+00:00)

A-11 Canister half - Pass Details

Date: 27 November 2019
Orbit: 1515 x 1685 km, 47.2° (Epoch: 05 December)

Event Time Altitude Azimuth Distance (km) Brightness Sun altitude
Rises 14:49:02 0° 265° (W) 4,754 12.3 40.9°
Reaches altitude 10° 14:54:23 10° 289° (WNW) 3,805 11.7 39.8°
Maximum altitude 14:58:41 14° 316° (NW) 3,550 11.2 38.8°
Drops below altitude 10° 15:03:03 10° 343° (NNW) 3,862 11.1 37.8°
Sets 15:08:40 0° 8° (N) 4,880 11.4 36.6°
